Time,TemperatureF,DewpointF,PressureIn,WindDirection,WindDirectionDegrees,WindSpeedMPH,WindSpeedGustMPH,Humidity,HourlyPrecipIn,Conditions,Clouds,dailyrainin,SoftwareType,DateUTC
2013-08-31 00:01:00,71.7,69.9,29.71,West,268,0.0,0.0,94,0.00,,,0.00,WeatherDisplay:10.37,2013-08-31 04:01:00,
2013-08-31 00:06:00,71.7,69.9,29.71,West,268,0.0,0.0,94,0.00,,,0.00,WeatherDisplay:10.37,2013-08-31 04:06:00,
2013-08-31 00:11:00,71.6,69.8,29.70,West,268,0.0,0.0,94,0.00,,,0.00,WeatherDisplay:10.37,2013-08-31 04:11:00,
2013-08-31 00:16:00,71.5,69.7,29.70,West,268,0.0,0.0,94,0.00,,,0.00,WeatherDisplay:10.37,2013-08-31 04:16:00,
2013-08-31 00:21:00,71.4,69.6,29.70,West,268,0.0,0.0,94,0.00,,,0.00,WeatherDisplay:10.37,2013-08-31 04:21:00,
2013-08-31 00:26:00,71.4,69.9,29.70,West,268,0.0,0.0,95,0.00,,,0.00,WeatherDisplay:10.37,2013-08-31 04:26:00,
2013-08-31 00:31:00,71.3,69.8,29.70,West,268,0.0,0.0,95,0.00,,,0.00,WeatherDisplay:10.37,2013-08-31 04:31:00,
2013-08-31 00:36:00,71.3,69.8,29.70,West,268,0.0,0.0,95,0.00,,,0.00,WeatherDisplay:10.37,2013-08-31 04:36:00,
2013-08-31 00:41:00,71.3,69.8,29.70,West,268,0.0,0.0,95,0.00,,,0.00,WeatherDisplay:10.37,2013-08-31 04:41:00,
2013-08-31 00:46:00,71.2,69.7,29.70,West,268,0.0,0.0,95,0.00,,,0.00,WeatherDisplay:10.37,2013-08-31 04:46:00,
2013-08-31 00:51:00,71.1,69.6,29.70,West,268,0.0,0.0,95,0.00,,,0.00,WeatherDisplay:10.37,2013-08-31 04:51:00,
2013-08-31 00:56:00,71.0,69.5,29.70,West,268,0.0,0.0,95,0.00,,,0.00,WeatherDisplay:10.37,2013-08-31 04:56:00,
2013-08-31 01:01:00,71.0,69.5,29.70,West,268,0.0,0.0,95,0.00,,,0.00,WeatherDisplay:10.37,2013-08-31 05:01:00,
2013-08-31 01:06:00,71.0,69.5,29.70,West,268,0.0,0.0,95,0.00,,,0.00,WeatherDisplay:10.37,2013-08-31 05:06:00,
2013-08-31 01:11:00,71.0,69.8,29.70,West,268,0.0,0.0,96,0.00,,,0.00,WeatherDisplay:10.37,2013-08-31 05:11:00,
2013-08-31 01:16:00,70.9,69.7,29.71,NW,321,0.6,1.1,96,0.00,,,0.00,WeatherDisplay:10.37,2013-08-31 05:16:00,
2013-08-31 01:21:00,70.9,69.7,29.71,ENE,78,0.3,1.1,96,0.00,,,0.00,WeatherDisplay:10.37,2013-08-31 05:21:00,
2013-08-31 01:26:00,70.9,69.7,29.70,ENE,78,0.0,0.0,96,0.00,,,0.00,WeatherDisplay:10.37,2013-08-31 05:26:00,
2013-08-31 01:31:00,70.9,69.7,29.70,ENE,78,0.0,0.0,96,0.02,RA,,0.02,WeatherDisplay:10.37,2013-08-31 05:31:00,
2013-08-31 01:36:00,70.9,69.7,29.70,ENE,78,0.0,0.0,96,0.02,RA,,0.02,WeatherDisplay:10.37,2013-08-31 05:36:00,
2013-08-31 01:41:00,70.9,69.7,29.70,ENE,78,0.0,0.0,96,0.02,,,0.02,WeatherDisplay:10.37,2013-08-31 05:41:00,
2013-08-31 01:46:00,71.0,69.8,29.70,ENE,78,0.0,0.0,96,0.03,RA,,0.04,WeatherDisplay:10.37,2013-08-31 05:46:00,
2013-08-31 01:51:00,70.9,70.0,29.69,ENE,78,0.0,0.0,97,0.05,RA,,0.05,WeatherDisplay:10.37,2013-08-31 05:51:00,
2013-08-31 01:56:00,70.9,70.0,29.68,ENE,78,0.0,0.0,97,0.06,RA,,0.06,WeatherDisplay:10.37,2013-08-31 05:56:00,
2013-08-31 02:01:00,70.8,69.9,29.69,ENE,78,0.0,0.0,97,0.06,RA,,0.06,WeatherDisplay:10.37,2013-08-31 06:01:00,
2013-08-31 02:06:00,70.7,69.8,29.69,ENE,78,0.0,0.0,97,0.06,,,0.06,WeatherDisplay:10.37,2013-08-31 06:06:00,
2013-08-31 02:11:00,70.7,69.8,29.69,ENE,78,0.0,0.0,97,0.06,,,0.06,WeatherDisplay:10.37,2013-08-31 06:11:00,
2013-08-31 02:16:00,70.7,69.8,29.69,ENE,78,0.0,0.0,97,0.06,,,0.06,WeatherDisplay:10.37,2013-08-31 06:16:00,
2013-08-31 02:21:00,70.7,69.8,29.69,ENE,78,0.0,0.0,97,0.06,,,0.06,WeatherDisplay:10.37,2013-08-31 06:21:00,
2013-08-31 02:26:00,70.6,69.7,29.69,ENE,78,0.0,0.0,97,0.06,,,0.06,WeatherDisplay:10.37,2013-08-31 06:26:00,
2013-08-31 02:31:00,70.6,69.7,29.69,ENE,78,0.0,0.0,97,0.04,,,0.06,WeatherDisplay:10.37,2013-08-31 06:31:00,
2013-08-31 02:36:00,70.6,69.7,29.68,ENE,78,0.0,0.0,97,0.04,,,0.06,WeatherDisplay:10.37,2013-08-31 06:36:00,
2013-08-31 02:41:00,70.5,69.6,29.68,ENE,78,0.0,0.0,97,0.04,,,0.06,WeatherDisplay:10.37,2013-08-31 06:41:00,
2013-08-31 02:46:00,70.5,69.6,29.68,ENE,78,0.0,0.0,97,0.03,,,0.06,WeatherDisplay:10.37,2013-08-31 06:46:00,
2013-08-31 02:51:00,70.4,69.8,29.68,ENE,78,0.0,0.0,98,0.01,,,0.06,WeatherDisplay:10.37,2013-08-31 06:51:00,
2013-08-31 02:56:00,70.3,69.4,29.68,ENE,78,0.0,0.0,97,0.00,,,0.06,WeatherDisplay:10.37,2013-08-31 06:56:00,
2013-08-31 03:01:00,70.3,69.7,29.68,ENE,78,0.0,0.0,98,0.00,,,0.06,WeatherDisplay:10.37,2013-08-31 07:01:00,
2013-08-31 03:06:00,70.3,69.7,29.68,ENE,78,0.0,0.0,98,0.00,,,0.06,WeatherDisplay:10.37,2013-08-31 07:06:00,
2013-08-31 03:11:00,70.3,69.7,29.68,ENE,78,0.0,0.0,98,0.00,,,0.06,WeatherDisplay:10.37,2013-08-31 07:11:00,
2013-08-31 03:16:00,70.3,69.7,29.68,ENE,78,0.0,0.0,98,0.00,,,0.06,WeatherDisplay:10.37,2013-08-31 07:16:00,
2013-08-31 03:21:00,70.3,69.7,29.68,ENE,78,0.0,0.0,98,0.00,,,0.06,WeatherDisplay:10.37,2013-08-31 07:21:00,
2013-08-31 03:26:00,70.3,69.7,29.68,ENE,78,0.0,0.0,98,0.00,,,0.06,WeatherDisplay:10.37,2013-08-31 07:26:00,
2013-08-31 03:31:00,70.3,69.7,29.67,ENE,78,0.0,0.0,98,0.00,,,0.06,WeatherDisplay:10.37,2013-08-31 07:31:00,
2013-08-31 03:36:00,70.3,69.7,29.68,ENE,78,0.0,0.0,98,0.00,,,0.06,WeatherDisplay:10.37,2013-08-31 07:36:00,
2013-08-31 03:41:00,70.3,69.7,29.68,ENE,78,0.0,0.0,98,0.00,,,0.06,WeatherDisplay:10.37,2013-08-31 07:41:00,
2013-08-31 03:46:00,70.3,69.7,29.68,ENE,78,0.0,0.0,98,0.00,,,0.06,WeatherDisplay:10.37,2013-08-31 07:46:00,
2013-08-31 03:51:00,70.4,69.8,29.68,ENE,78,0.0,0.0,98,0.00,,,0.06,WeatherDisplay:10.37,2013-08-31 07:51:00,
2013-08-31 03:56:00,70.5,69.9,29.68,ENE,78,0.0,0.0,98,0.00,,,0.06,WeatherDisplay:10.37,2013-08-31 07:56:00,
2013-08-31 04:01:00,70.5,69.9,29.68,ENE,78,0.0,0.0,98,0.00,,,0.06,WeatherDisplay:10.37,2013-08-31 08:01:00,
2013-08-31 04:06:00,70.6,70.0,29.69,ENE,78,0.0,0.0,98,0.00,,,0.06,WeatherDisplay:10.37,2013-08-31 08:06:00,
2013-08-31 04:11:00,70.6,70.0,29.69,ENE,78,0.0,0.0,98,0.00,,,0.06,WeatherDisplay:10.37,2013-08-31 08:11:00,
2013-08-31 04:16:00,70.5,69.9,29.68,ENE,78,0.0,0.0,98,0.00,,,0.06,WeatherDisplay:10.37,2013-08-31 08:16:00,
2013-08-31 04:21:00,70.5,69.9,29.68,ENE,78,0.0,0.0,98,0.00,,,0.06,WeatherDisplay:10.37,2013-08-31 08:21:00,
2013-08-31 04:26:00,70.5,69.9,29.68,ENE,78,0.0,0.0,98,0.00,,,0.06,WeatherDisplay:10.37,2013-08-31 08:26:00,
2013-08-31 04:31:00,70.5,69.9,29.68,ENE,78,0.0,0.0,98,0.00,,,0.06,WeatherDisplay:10.37,2013-08-31 08:31:00,
2013-08-31 04:36:00,70.5,69.9,29.68,ENE,78,0.0,0.0,98,0.00,,,0.06,WeatherDisplay:10.37,2013-08-31 08:36:00,
2013-08-31 04:41:00,70.6,70.0,29.68,ENE,78,0.0,0.0,98,0.00,,,0.06,WeatherDisplay:10.37,2013-08-31 08:41:00,
2013-08-31 04:46:00,70.6,70.0,29.68,ENE,78,0.0,0.0,98,0.00,,,0.06,WeatherDisplay:10.37,2013-08-31 08:46:00,
2013-08-31 04:51:00,70.7,70.1,29.68,ENE,78,0.0,0.0,98,0.00,,,0.06,WeatherDisplay:10.37,2013-08-31 08:51:00,
2013-08-31 04:56:00,70.8,70.2,29.68,ENE,78,0.0,0.0,98,0.00,,,0.06,WeatherDisplay:10.37,2013-08-31 08:56:00,
2013-08-31 05:01:00,70.7,70.1,29.68,ENE,78,0.0,0.0,98,0.00,,,0.06,WeatherDisplay:10.37,2013-08-31 09:01:00,
2013-08-31 05:06:00,70.6,70.0,29.68,ENE,78,0.0,0.0,98,0.00,,,0.06,WeatherDisplay:10.37,2013-08-31 09:06:00,
2013-08-31 05:11:00,70.6,70.0,29.68,ENE,78,0.0,0.0,98,0.00,,,0.06,WeatherDisplay:10.37,2013-08-31 09:11:00,
2013-08-31 05:16:00,70.5,69.9,29.68,ENE,78,0.0,0.0,98,0.00,,,0.06,WeatherDisplay:10.37,2013-08-31 09:16:00,
2013-08-31 05:21:00,70.5,70.2,29.68,ENE,78,0.0,0.0,99,0.00,,,0.06,WeatherDisplay:10.37,2013-08-31 09:21:00,
2013-08-31 05:26:00,70.5,70.2,29.68,ENE,78,0.0,0.0,99,0.00,,,0.06,WeatherDisplay:10.37,2013-08-31 09:26:00,
2013-08-31 05:31:00,70.5,70.2,29.68,ENE,78,0.0,0.0,99,0.00,,,0.06,WeatherDisplay:10.37,2013-08-31 09:31:00,
2013-08-31 05:36:00,70.4,69.8,29.68,ENE,78,0.0,0.0,98,0.00,,,0.06,WeatherDisplay:10.37,2013-08-31 09:36:00,
2013-08-31 05:41:00,70.4,69.8,29.68,ENE,78,0.0,0.0,98,0.00,,,0.06,WeatherDisplay:10.37,2013-08-31 09:41:00,
2013-08-31 05:46:00,70.4,69.8,29.68,ENE,78,0.0,0.0,98,0.00,,,0.06,WeatherDisplay:10.37,2013-08-31 09:46:00,
2013-08-31 05:51:00,70.4,69.8,29.68,ENE,78,0.0,0.0,98,0.00,,,0.06,WeatherDisplay:10.37,2013-08-31 09:51:00,
2013-08-31 05:56:00,70.3,69.7,29.68,ENE,78,0.0,0.0,98,0.00,,,0.06,WeatherDisplay:10.37,2013-08-31 09:56:00,
2013-08-31 06:01:00,70.3,69.7,29.68,ENE,78,0.0,0.0,98,0.00,,,0.06,WeatherDisplay:10.37,2013-08-31 10:01:00,
2013-08-31 06:06:00,70.3,69.7,29.68,ENE,78,0.0,0.0,98,0.00,,,0.06,WeatherDisplay:10.37,2013-08-31 10:06:00,
2013-08-31 06:11:00,70.3,70.0,29.68,ENE,78,0.0,0.0,99,0.00,,,0.06,WeatherDisplay:10.37,2013-08-31 10:11:00,
2013-08-31 06:16:00,70.3,70.0,29.69,ENE,78,0.0,0.0,99,0.00,,,0.06,WeatherDisplay:10.37,2013-08-31 10:16:00,
2013-08-31 06:21:00,70.3,70.0,29.68,ENE,78,0.0,0.0,99,0.00,,,0.06,WeatherDisplay:10.37,2013-08-31 10:21:00,
2013-08-31 06:26:00,70.3,70.0,29.69,ENE,78,0.0,0.0,99,0.00,,,0.06,WeatherDisplay:10.37,2013-08-31 10:26:00,
2013-08-31 06:31:00,70.3,70.0,29.69,ENE,78,0.0,0.0,99,0.00,,,0.06,WeatherDisplay:10.37,2013-08-31 10:31:00,
2013-08-31 06:36:00,70.3,70.0,29.69,ENE,78,0.0,0.0,99,0.00,,,0.06,WeatherDisplay:10.37,2013-08-31 10:36:00,
2013-08-31 06:41:00,70.3,70.0,29.69,ENE,78,0.0,0.0,99,0.00,,,0.06,WeatherDisplay:10.37,2013-08-31 10:41:00,
2013-08-31 06:46:00,70.4,70.1,29.69,ENE,78,0.0,0.0,99,0.00,,,0.06,WeatherDisplay:10.37,2013-08-31 10:46:00,
2013-08-31 06:51:00,70.4,70.1,29.69,ENE,78,0.0,0.0,99,0.00,,,0.06,WeatherDisplay:10.37,2013-08-31 10:51:00,
2013-08-31 06:56:00,70.4,70.1,29.69,ENE,78,0.0,0.0,99,0.00,,,0.06,WeatherDisplay:10.37,2013-08-31 10:56:00,
2013-08-31 07:01:00,70.4,70.1,29.69,ENE,78,0.0,0.0,99,0.00,,,0.06,WeatherDisplay:10.37,2013-08-31 11:01:00,
2013-08-31 07:06:00,70.4,70.1,29.69,ENE,78,0.0,0.0,99,0.00,,,0.06,WeatherDisplay:10.37,2013-08-31 11:06:00,
2013-08-31 07:11:00,70.4,70.1,29.69,ENE,78,0.0,0.0,99,0.00,,,0.06,WeatherDisplay:10.37,2013-08-31 11:11:00,
2013-08-31 07:16:00,70.5,70.2,29.69,ENE,78,0.0,0.0,99,0.00,,,0.06,WeatherDisplay:10.37,2013-08-31 11:16:00,
2013-08-31 07:21:00,70.6,70.3,29.69,ENE,78,0.0,0.0,99,0.00,,,0.06,WeatherDisplay:10.37,2013-08-31 11:21:00,
2013-08-31 07:26:00,70.5,70.2,29.69,ENE,78,0.0,0.0,99,0.00,,,0.06,WeatherDisplay:10.37,2013-08-31 11:26:00,
2013-08-31 07:31:00,70.5,70.2,29.70,ENE,78,0.0,0.0,99,0.00,,,0.06,WeatherDisplay:10.37,2013-08-31 11:31:00,
2013-08-31 07:36:00,70.5,70.2,29.70,ENE,78,0.0,0.0,99,0.00,,,0.06,WeatherDisplay:10.37,2013-08-31 11:36:00,
2013-08-31 07:41:00,70.6,70.3,29.70,ENE,78,0.0,0.0,99,0.00,,,0.06,WeatherDisplay:10.37,2013-08-31 11:41:00,
2013-08-31 07:46:00,70.6,70.3,29.70,ENE,78,0.0,0.0,99,0.00,,,0.06,WeatherDisplay:10.37,2013-08-31 11:46:00,
2013-08-31 07:51:00,70.6,70.3,29.70,ENE,78,0.0,0.0,99,0.00,,,0.06,WeatherDisplay:10.37,2013-08-31 11:51:00,
2013-08-31 07:56:00,70.6,70.3,29.70,ENE,78,0.0,0.0,99,0.00,,,0.06,WeatherDisplay:10.37,2013-08-31 11:56:00,
2013-08-31 08:01:00,70.7,70.4,29.70,ENE,78,0.0,0.0,99,0.00,,,0.06,WeatherDisplay:10.37,2013-08-31 12:01:00,
2013-08-31 08:06:00,70.7,70.4,29.70,ENE,78,0.0,0.0,99,0.00,,,0.06,WeatherDisplay:10.37,2013-08-31 12:06:00,
2013-08-31 08:11:00,70.8,70.5,29.70,ENE,78,0.0,0.0,99,0.00,,,0.06,WeatherDisplay:10.37,2013-08-31 12:11:00,
2013-08-31 08:16:00,70.8,70.5,29.70,ENE,78,0.0,0.0,99,0.00,,,0.06,WeatherDisplay:10.37,2013-08-31 12:16:00,
2013-08-31 08:21:00,70.9,70.6,29.70,ENE,78,0.0,0.0,99,0.00,,,0.06,WeatherDisplay:10.37,2013-08-31 12:21:00,
2013-08-31 08:26:00,71.0,70.7,29.70,ENE,78,0.0,0.0,99,0.00,,,0.06,WeatherDisplay:10.37,2013-08-31 12:26:00,
2013-08-31 08:31:00,71.1,70.8,29.71,ENE,78,0.0,0.0,99,0.00,,,0.06,WeatherDisplay:10.37,2013-08-31 12:31:00,
2013-08-31 08:36:00,71.3,71.0,29.71,ENE,78,0.0,0.0,99,0.00,,,0.06,WeatherDisplay:10.37,2013-08-31 12:36:00,
2013-08-31 08:41:00,71.4,71.1,29.71,ENE,78,0.0,0.0,99,0.00,,,0.06,WeatherDisplay:10.37,2013-08-31 12:41:00,
2013-08-31 08:46:00,71.5,71.2,29.71,ENE,78,0.0,0.0,99,0.00,,,0.06,WeatherDisplay:10.37,2013-08-31 12:46:00,
2013-08-31 08:51:00,71.7,71.4,29.71,ENE,78,0.0,0.0,99,0.00,,,0.06,WeatherDisplay:10.37,2013-08-31 12:51:00,
2013-08-31 08:56:00,71.9,71.6,29.71,ENE,78,0.0,0.0,99,0.00,,,0.06,WeatherDisplay:10.37,2013-08-31 12:56:00,
2013-08-31 09:01:00,72.1,71.8,29.70,ENE,78,0.0,0.0,99,0.00,,,0.06,WeatherDisplay:10.37,2013-08-31 13:01:00,
2013-08-31 09:06:00,72.3,72.0,29.71,ENE,78,0.0,0.0,99,0.00,,,0.06,WeatherDisplay:10.37,2013-08-31 13:06:00,
2013-08-31 09:11:00,72.4,72.1,29.71,ENE,78,0.0,0.0,99,0.00,,,0.06,WeatherDisplay:10.37,2013-08-31 13:11:00,
2013-08-31 09:16:00,72.6,72.3,29.71,ENE,78,0.0,0.0,99,0.00,,,0.06,WeatherDisplay:10.37,2013-08-31 13:16:00,
2013-08-31 09:21:00,72.8,72.5,29.71,ENE,78,0.0,0.0,99,0.00,,,0.06,WeatherDisplay:10.37,2013-08-31 13:21:00,
2013-08-31 09:26:00,72.9,72.6,29.71,ENE,78,0.0,0.0,99,0.00,,,0.06,WeatherDisplay:10.37,2013-08-31 13:26:00,
2013-08-31 09:31:00,72.9,72.6,29.71,ENE,78,0.0,0.0,99,0.00,,,0.06,WeatherDisplay:10.37,2013-08-31 13:31:00,
2013-08-31 09:36:00,72.8,72.5,29.71,East,80,0.0,0.0,99,0.00,,,0.06,WeatherDisplay:10.37,2013-08-31 13:36:00,
2013-08-31 09:41:00,72.7,72.4,29.72,WSW,245,0.2,1.1,99,0.00,,,0.06,WeatherDisplay:10.37,2013-08-31 13:41:00,
2013-08-31 09:46:00,72.8,72.2,29.72,SW,220,1.0,3.5,98,0.00,,,0.06,WeatherDisplay:10.37,2013-08-31 13:46:00,
2013-08-31 09:51:00,73.5,72.9,29.72,SW,217,0.3,1.1,98,0.00,,,0.06,WeatherDisplay:10.37,2013-08-31 13:51:00,
2013-08-31 09:56:00,73.9,73.0,29.72,SW,217,0.0,0.0,97,0.00,,,0.06,WeatherDisplay:10.37,2013-08-31 13:56:00,
2013-08-31 10:01:00,74.2,73.0,29.72,SW,217,0.1,0.0,96,0.00,,,0.06,WeatherDisplay:10.37,2013-08-31 14:01:00,
2013-08-31 10:06:00,74.5,73.3,29.72,SW,217,0.0,0.0,96,0.00,,,0.06,WeatherDisplay:10.37,2013-08-31 14:06:00,
2013-08-31 10:11:00,74.6,72.8,29.72,SSW,199,0.6,2.3,94,0.00,,,0.06,WeatherDisplay:10.37,2013-08-31 14:11:00,
2013-08-31 10:16:00,74.9,72.7,29.72,WSW,238,0.3,1.0,93,0.00,,,0.06,WeatherDisplay:10.37,2013-08-31 14:16:00,
2013-08-31 10:21:00,75.2,72.7,29.72,SSW,205,0.0,1.1,92,0.00,,,0.06,WeatherDisplay:10.37,2013-08-31 14:21:00,
2013-08-31 10:26:00,75.5,73.0,29.72,SSW,213,1.8,3.0,92,0.00,,,0.06,WeatherDisplay:10.37,2013-08-31 14:26:00,
2013-08-31 10:31:00,75.9,73.1,29.72,WSW,254,0.1,2.3,91,0.00,,,0.06,WeatherDisplay:10.37,2013-08-31 14:31:00,
2013-08-31 10:36:00,76.2,72.7,29.72,SSW,195,2.2,4.6,89,0.00,,,0.06,WeatherDisplay:10.37,2013-08-31 14:36:00,
2013-08-31 10:41:00,76.4,72.9,29.72,SW,228,0.4,2.3,89,0.00,,,0.06,WeatherDisplay:10.37,2013-08-31 14:41:00,
2013-08-31 10:46:00,76.6,72.8,29.72,SW,229,0.6,2.3,88,0.00,,,0.06,WeatherDisplay:10.37,2013-08-31 14:46:00,
2013-08-31 10:51:00,76.8,72.6,29.72,SW,225,0.4,2.3,87,0.00,,,0.06,WeatherDisplay:10.37,2013-08-31 14:51:00,
2013-08-31 10:56:00,77.0,72.8,29.72,SSW,197,1.0,3.5,87,0.00,,,0.06,WeatherDisplay:10.37,2013-08-31 14:56:00,
2013-08-31 11:01:00,77.2,72.7,29.72,SW,221,0.3,1.1,86,0.00,,,0.06,WeatherDisplay:10.37,2013-08-31 15:01:00,
2013-08-31 11:06:00,77.3,73.1,29.72,WNW,288,0.0,0.0,87,0.00,,,0.06,WeatherDisplay:10.37,2013-08-31 15:06:00,
2013-08-31 11:11:00,77.4,72.9,29.73,West,273,2.4,2.4,86,0.00,,,0.06,WeatherDisplay:10.37,2013-08-31 15:11:00,
2013-08-31 11:16:00,77.4,72.5,29.72,SSW,211,0.0,2.3,85,0.00,,,0.06,WeatherDisplay:10.37,2013-08-31 15:16:00,
2013-08-31 11:21:00,77.6,73.1,29.72,SW,227,1.2,3.0,86,0.00,,,0.06,WeatherDisplay:10.37,2013-08-31 15:21:00,
2013-08-31 11:26:00,77.8,72.6,29.72,SSW,206,0.5,3.5,84,0.00,,,0.06,WeatherDisplay:10.37,2013-08-31 15:26:00,
2013-08-31 11:31:00,78.2,73.0,29.72,SW,229,0.3,1.1,84,0.00,,,0.06,WeatherDisplay:10.37,2013-08-31 15:31:00,
2013-08-31 11:36:00,78.4,73.5,29.72,SSE,168,0.2,1.1,85,0.00,,,0.06,WeatherDisplay:10.37,2013-08-31 15:36:00,
2013-08-31 11:41:00,78.3,73.1,29.73,SW,234,0.4,3.5,84,0.00,,,0.06,WeatherDisplay:10.37,2013-08-31 15:41:00,
2013-08-31 11:46:00,78.2,72.6,29.73,SW,234,0.1,1.0,83,0.00,,,0.06,WeatherDisplay:10.37,2013-08-31 15:46:00,
2013-08-31 11:51:00,78.1,72.9,29.72,WSW,242,0.0,0.0,84,0.00,,,0.06,WeatherDisplay:10.37,2013-08-31 15:51:00,
2013-08-31 11:56:00,78.1,72.9,29.73,WSW,242,0.0,0.0,84,0.00,,,0.06,WeatherDisplay:10.37,2013-08-31 15:56:00,
2013-08-31 12:01:00,77.9,73.0,29.73,WSW,242,0.0,0.0,85,0.00,,,0.06,WeatherDisplay:10.37,2013-08-31 16:01:00,
2013-08-31 12:06:00,77.8,72.9,29.72,WSW,249,0.1,1.0,85,0.00,,,0.06,WeatherDisplay:10.37,2013-08-31 16:06:00,
2013-08-31 12:11:00,77.8,72.2,29.72,SSW,196,0.3,1.1,83,0.00,,,0.06,WeatherDisplay:10.37,2013-08-31 16:11:00,
2013-08-31 12:16:00,77.9,71.2,29.72,South,169,0.0,2.3,80,0.00,,,0.06,WeatherDisplay:10.37,2013-08-31 16:16:00,
2013-08-31 12:21:00,78.1,71.8,29.72,SSW,194,1.2,3.5,81,0.00,,,0.06,WeatherDisplay:10.37,2013-08-31 16:21:00,
2013-08-31 12:26:00,78.7,71.6,29.72,SSW,195,3.6,6.9,79,0.00,,,0.06,WeatherDisplay:10.37,2013-08-31 16:26:00,
2013-08-31 12:31:00,79.2,71.7,29.72,West,261,0.4,2.3,78,0.00,,,0.06,WeatherDisplay:10.37,2013-08-31 16:31:00,
2013-08-31 12:36:00,79.3,71.1,29.72,SSW,205,3.0,5.8,76,0.00,,,0.06,WeatherDisplay:10.37,2013-08-31 16:36:00,
2013-08-31 12:41:00,79.4,71.2,29.72,WSW,257,0.2,1.1,76,0.00,,,0.06,WeatherDisplay:10.37,2013-08-31 16:41:00,
2013-08-31 12:46:00,79.9,71.3,29.72,South,184,2.6,3.5,75,0.00,,,0.06,WeatherDisplay:10.37,2013-08-31 16:46:00,
2013-08-31 12:51:00,80.2,70.8,29.72,SW,232,1.1,3.5,73,0.00,,,0.06,WeatherDisplay:10.37,2013-08-31 16:51:00,
2013-08-31 12:56:00,80.4,71.7,29.72,SSW,203,1.1,4.6,75,0.00,,,0.06,WeatherDisplay:10.37,2013-08-31 16:56:00,
2013-08-31 13:01:00,80.6,72.7,29.72,SW,228,0.0,0.0,77,0.00,,,0.06,WeatherDisplay:10.37,2013-08-31 17:01:00,
2013-08-31 13:06:00,80.3,72.8,29.72,NNW,331,0.0,1.1,78,0.00,,,0.06,WeatherDisplay:10.37,2013-08-31 17:06:00,
2013-08-31 13:11:00,79.7,73.0,29.72,NNW,329,0.0,0.0,80,0.00,,,0.06,WeatherDisplay:10.37,2013-08-31 17:11:00,
2013-08-31 13:16:00,79.4,72.3,29.72,SW,230,0.3,1.1,79,0.00,,,0.06,WeatherDisplay:10.37,2013-08-31 17:16:00,
2013-08-31 13:21:00,79.3,72.6,29.72,SW,230,0.0,0.0,80,0.00,,,0.06,WeatherDisplay:10.37,2013-08-31 17:21:00,
2013-08-31 13:26:00,79.2,72.5,29.72,SW,230,0.0,0.0,80,0.00,,,0.06,WeatherDisplay:10.37,2013-08-31 17:26:00,
2013-08-31 13:31:00,79.0,72.3,29.72,WNW,286,0.1,0.0,80,0.00,,,0.06,WeatherDisplay:10.37,2013-08-31 17:31:00,
2013-08-31 13:36:00,78.9,71.8,29.72,North,350,0.2,1.0,79,0.00,,,0.06,WeatherDisplay:10.37,2013-08-31 17:36:00,
2013-08-31 13:41:00,79.0,72.7,29.73,NNE,17,1.0,2.0,81,0.00,,,0.06,WeatherDisplay:10.37,2013-08-31 17:41:00,
2013-08-31 13:46:00,79.3,72.2,29.72,North,350,0.0,1.0,79,0.00,,,0.06,WeatherDisplay:10.37,2013-08-31 17:46:00,
2013-08-31 13:51:00,79.6,72.5,29.72,SSW,203,1.1,2.3,79,0.00,,,0.06,WeatherDisplay:10.37,2013-08-31 17:51:00,
2013-08-31 13:56:00,79.8,72.3,29.72,North,360,1.2,5.8,78,0.00,,,0.06,WeatherDisplay:10.37,2013-08-31 17:56:00,
2013-08-31 14:01:00,79.8,72.7,29.72,NNE,26,1.0,2.3,79,0.00,,,0.06,WeatherDisplay:10.37,2013-08-31 18:01:00,
2013-08-31 14:06:00,79.6,72.9,29.72,NNW,342,2.1,3.5,80,0.00,,,0.06,WeatherDisplay:10.37,2013-08-31 18:06:00,
2013-08-31 14:11:00,79.1,73.1,29.72,NNW,348,0.2,4.6,82,0.00,,,0.06,WeatherDisplay:10.37,2013-08-31 18:11:00,
2013-08-31 14:16:00,78.7,73.5,29.72,NW,325,0.9,3.5,84,0.00,,,0.06,WeatherDisplay:10.37,2013-08-31 18:16:00,
2013-08-31 14:21:00,78.2,72.6,29.72,NW,315,0.4,1.1,83,0.00,,,0.06,WeatherDisplay:10.37,2013-08-31 18:21:00,
2013-08-31 14:26:00,77.6,72.7,29.72,North,360,0.0,1.1,85,0.00,,,0.06,WeatherDisplay:10.37,2013-08-31 18:26:00,
2013-08-31 14:31:00,77.4,72.9,29.72,WNW,302,0.9,3.5,86,0.00,,,0.06,WeatherDisplay:10.37,2013-08-31 18:31:00,
2013-08-31 14:36:00,76.9,72.0,29.72,NNE,13,0.4,2.3,85,0.00,,,0.06,WeatherDisplay:10.37,2013-08-31 18:36:00,
2013-08-31 14:41:00,76.6,71.7,29.72,North,9,0.0,1.1,85,0.00,,,0.06,WeatherDisplay:10.37,2013-08-31 18:41:00,
2013-08-31 14:46:00,76.4,71.9,29.72,NNW,341,0.4,3.5,86,0.00,,,0.06,WeatherDisplay:10.37,2013-08-31 18:46:00,
2013-08-31 14:51:00,76.4,72.2,29.72,NNW,342,0.1,1.1,87,0.00,,,0.06,WeatherDisplay:10.37,2013-08-31 18:51:00,
2013-08-31 14:56:00,76.3,71.5,29.72,NNW,340,0.7,3.5,85,0.00,,,0.06,WeatherDisplay:10.37,2013-08-31 18:56:00,
2013-08-31 15:01:00,76.5,72.3,29.72,NNW,340,0.0,0.0,87,0.00,,,0.06,WeatherDisplay:10.37,2013-08-31 19:01:00,
2013-08-31 15:06:00,76.7,72.2,29.72,NNW,336,0.0,0.0,86,0.00,,,0.06,WeatherDisplay:10.37,2013-08-31 19:06:00,
2013-08-31 15:11:00,77.1,72.6,29.72,North,351,0.1,2.3,86,0.00,,,0.06,WeatherDisplay:10.37,2013-08-31 19:11:00,
2013-08-31 15:16:00,77.3,72.8,29.72,NNW,340,0.6,2.0,86,0.00,,,0.06,WeatherDisplay:10.37,2013-08-31 19:16:00,
2013-08-31 15:21:00,77.4,72.5,29.72,NNW,334,0.0,0.0,85,0.00,,,0.06,WeatherDisplay:10.37,2013-08-31 19:21:00,
2013-08-31 15:26:00,77.3,72.4,29.72,NW,317,0.4,1.1,85,0.00,,,0.06,WeatherDisplay:10.37,2013-08-31 19:26:00,
2013-08-31 15:31:00,76.9,71.7,29.72,NNW,327,0.0,2.3,84,0.00,,,0.06,WeatherDisplay:10.37,2013-08-31 19:31:00,
2013-08-31 15:36:00,76.5,71.7,29.72,NNW,340,1.1,2.3,85,0.00,,,0.06,WeatherDisplay:10.37,2013-08-31 19:36:00,
2013-08-31 15:41:00,76.4,71.9,29.72,NNW,338,0.0,0.0,86,0.00,,,0.06,WeatherDisplay:10.37,2013-08-31 19:41:00,
2013-08-31 15:46:00,76.2,71.7,29.71,NNW,333,0.6,1.1,86,0.00,,,0.06,WeatherDisplay:10.37,2013-08-31 19:46:00,
2013-08-31 15:51:00,76.4,71.9,29.72,North,5,2.7,6.9,86,0.00,,,0.06,WeatherDisplay:10.37,2013-08-31 19:51:00,
2013-08-31 15:56:00,76.5,71.7,29.71,NNW,331,0.7,6.0,85,0.00,,,0.06,WeatherDisplay:10.37,2013-08-31 19:56:00,
2013-08-31 16:01:00,76.2,71.4,29.72,NNE,14,1.5,5.8,85,0.00,,,0.06,WeatherDisplay:10.37,2013-08-31 20:01:00,
2013-08-31 16:06:00,76.0,71.2,29.71,NNW,341,1.0,3.5,85,0.00,,,0.06,WeatherDisplay:10.37,2013-08-31 20:06:00,
2013-08-31 16:11:00,75.7,71.2,29.71,NNW,329,1.4,3.5,86,0.00,,,0.06,WeatherDisplay:10.37,2013-08-31 20:11:00,
2013-08-31 16:16:00,75.5,71.0,29.71,NW,305,2.7,4.0,86,0.00,,,0.06,WeatherDisplay:10.37,2013-08-31 20:16:00,
2013-08-31 16:21:00,75.3,70.8,29.72,NNW,331,0.8,3.5,86,0.00,,,0.06,WeatherDisplay:10.37,2013-08-31 20:21:00,
2013-08-31 16:26:00,75.2,71.1,29.72,NNE,13,0.0,2.3,87,0.00,,,0.06,WeatherDisplay:10.37,2013-08-31 20:26:00,
2013-08-31 16:31:00,75.4,71.3,29.72,NNW,341,0.0,0.0,87,0.00,,,0.06,WeatherDisplay:10.37,2013-08-31 20:31:00,
2013-08-31 16:36:00,75.6,71.5,29.73,NNW,341,0.0,0.0,87,0.00,,,0.06,WeatherDisplay:10.37,2013-08-31 20:36:00,
2013-08-31 16:41:00,75.4,70.6,29.73,North,350,0.1,5.8,85,0.00,,,0.06,WeatherDisplay:10.37,2013-08-31 20:41:00,
2013-08-31 16:46:00,75.1,70.6,29.73,North,355,0.8,3.5,86,0.00,,,0.06,WeatherDisplay:10.37,2013-08-31 20:46:00,
2013-08-31 16:51:00,74.8,70.7,29.74,North,355,0.3,2.3,87,0.00,,,0.06,WeatherDisplay:10.37,2013-08-31 20:51:00,
2013-08-31 16:56:00,74.9,70.8,29.74,NNE,17,1.6,3.5,87,0.00,,,0.06,WeatherDisplay:10.37,2013-08-31 20:56:00,
2013-08-31 17:01:00,75.5,71.4,29.75,NW,307,0.2,1.1,87,0.00,,,0.06,WeatherDisplay:10.37,2013-08-31 21:01:00,
2013-08-31 17:06:00,75.3,70.5,29.75,North,355,0.3,1.1,85,0.00,,,0.06,WeatherDisplay:10.37,2013-08-31 21:06:00,
2013-08-31 17:11:00,74.9,70.1,29.75,North,355,0.3,5.8,85,0.00,,,0.06,WeatherDisplay:10.37,2013-08-31 21:11:00,
2013-08-31 17:16:00,74.6,70.5,29.75,North,355,0.4,2.3,87,0.00,,,0.06,WeatherDisplay:10.37,2013-08-31 21:16:00,
2013-08-31 17:21:00,74.3,69.8,29.75,NNW,336,0.1,1.1,86,0.00,,,0.06,WeatherDisplay:10.37,2013-08-31 21:21:00,
2013-08-31 17:26:00,74.0,69.9,29.75,NNW,336,0.0,0.0,87,0.00,,,0.06,WeatherDisplay:10.37,2013-08-31 21:26:00,
2013-08-31 17:31:00,73.8,69.7,29.76,North,351,0.4,1.1,87,0.00,,,0.06,WeatherDisplay:10.37,2013-08-31 21:31:00,
2013-08-31 17:36:00,73.6,69.8,29.76,North,351,0.0,0.0,88,0.00,,,0.06,WeatherDisplay:10.37,2013-08-31 21:36:00,
2013-08-31 17:41:00,73.4,69.6,29.76,North,351,0.0,0.0,88,0.00,,,0.06,WeatherDisplay:10.37,2013-08-31 21:41:00,
2013-08-31 17:46:00,73.1,69.3,29.76,NNW,335,0.9,3.5,88,0.00,,,0.06,WeatherDisplay:10.37,2013-08-31 21:46:00,
2013-08-31 17:51:00,72.8,69.0,29.75,North,355,1.6,3.5,88,0.00,,,0.06,WeatherDisplay:10.37,2013-08-31 21:51:00,
2013-08-31 17:56:00,72.8,69.0,29.75,North,355,0.0,0.0,88,0.00,,,0.06,WeatherDisplay:10.37,2013-08-31 21:56:00,
2013-08-31 18:01:00,72.9,69.5,29.75,NNW,344,0.0,0.0,89,0.00,,,0.06,WeatherDisplay:10.37,2013-08-31 22:01:00,
2013-08-31 18:06:00,73.0,69.2,29.76,NNW,344,0.0,0.0,88,0.00,,,0.06,WeatherDisplay:10.37,2013-08-31 22:06:00,
2013-08-31 18:11:00,72.9,69.1,29.75,NW,312,0.0,0.0,88,0.00,,,0.06,WeatherDisplay:10.37,2013-08-31 22:11:00,
2013-08-31 18:16:00,72.8,69.0,29.75,NW,315,0.1,1.1,88,0.00,,,0.06,WeatherDisplay:10.37,2013-08-31 22:16:00,
2013-08-31 18:21:00,72.7,68.9,29.76,NW,315,0.0,0.0,88,0.00,,,0.06,WeatherDisplay:10.37,2013-08-31 22:21:00,
2013-08-31 18:26:00,72.6,69.2,29.76,NW,316,0.0,0.0,89,0.00,,,0.06,WeatherDisplay:10.37,2013-08-31 22:26:00,
2013-08-31 18:31:00,72.6,69.2,29.75,NW,315,0.0,0.0,89,0.00,,,0.06,WeatherDisplay:10.37,2013-08-31 22:31:00,
2013-08-31 18:36:00,72.5,69.1,29.76,NW,315,0.0,0.0,89,0.00,,,0.06,WeatherDisplay:10.37,2013-08-31 22:36:00,
2013-08-31 18:41:00,72.4,69.0,29.75,North,360,0.5,1.0,89,0.00,OVC,,0.06,WeatherDisplay:10.37,2013-08-31 22:41:00,
2013-08-31 18:46:00,72.4,69.0,29.75,North,360,0.0,0.0,89,0.00,OVC,,0.06,WeatherDisplay:10.37,2013-08-31 22:46:00,
2013-08-31 18:51:00,72.3,68.9,29.75,North,360,0.0,0.0,89,0.00,OVC,,0.06,WeatherDisplay:10.37,2013-08-31 22:51:00,
2013-08-31 18:56:00,72.2,69.1,29.75,North,360,0.0,0.0,90,0.00,OVC,,0.06,WeatherDisplay:10.37,2013-08-31 22:56:00,
2013-08-31 19:01:00,72.1,69.0,29.75,North,360,0.0,0.0,90,0.00,OVC,,0.06,WeatherDisplay:10.37,2013-08-31 23:01:00,
2013-08-31 19:06:00,71.9,68.8,29.75,North,360,0.0,0.0,90,0.00,OVC,,0.06,WeatherDisplay:10.37,2013-08-31 23:06:00,
2013-08-31 19:11:00,71.8,68.4,29.76,NNW,338,0.7,1.1,89,0.00,OVC,,0.06,WeatherDisplay:10.37,2013-08-31 23:11:00,
2013-08-31 19:16:00,71.7,68.6,29.76,North,355,0.7,2.3,90,0.00,OVC,,0.06,WeatherDisplay:10.37,2013-08-31 23:16:00,
2013-08-31 19:21:00,71.6,68.5,29.76,NW,325,0.0,1.1,90,0.00,OVC,,0.06,WeatherDisplay:10.37,2013-08-31 23:21:00,
2013-08-31 19:26:00,71.6,68.5,29.76,NW,325,0.0,0.0,90,0.00,OVC,,0.06,WeatherDisplay:10.37,2013-08-31 23:26:00,
2013-08-31 19:31:00,71.5,68.4,29.76,NNW,334,0.3,2.0,90,0.00,OVC,,0.06,WeatherDisplay:10.37,2013-08-31 23:31:00,
2013-08-31 19:36:00,71.5,68.4,29.77,NNW,343,0.0,1.1,90,0.00,OVC,,0.06,WeatherDisplay:10.37,2013-08-31 23:36:00,
2013-08-31 19:41:00,71.4,68.3,29.77,NNW,342,0.0,0.0,90,0.00,OVC,,0.06,WeatherDisplay:10.37,2013-08-31 23:41:00,
2013-08-31 19:46:00,71.4,68.3,29.77,NNW,343,0.0,0.0,90,0.00,OVC,,0.06,WeatherDisplay:10.37,2013-08-31 23:46:00,
2013-08-31 19:51:00,71.4,68.3,29.77,NNW,343,0.0,0.0,90,0.00,OVC,,0.06,WeatherDisplay:10.37,2013-08-31 23:51:00,
2013-08-31 19:56:00,71.4,68.3,29.77,NNW,342,0.0,0.0,90,0.00,OVC,,0.06,WeatherDisplay:10.37,2013-08-31 23:56:00,
2013-08-31 20:01:00,71.5,68.4,29.77,NNW,343,0.0,0.0,90,0.00,OVC,,0.06,WeatherDisplay:10.37,2013-09-01 00:01:00,
2013-08-31 20:06:00,71.5,68.4,29.77,NNW,343,0.0,0.0,90,0.00,OVC,,0.06,WeatherDisplay:10.37,2013-09-01 00:06:00,
2013-08-31 20:11:00,71.4,68.6,29.77,NNW,343,0.0,0.0,91,0.00,OVC,,0.06,WeatherDisplay:10.37,2013-09-01 00:11:00,
2013-08-31 20:16:00,71.3,68.5,29.77,NNW,342,0.0,0.0,91,0.00,OVC,,0.06,WeatherDisplay:10.37,2013-09-01 00:16:00,
2013-08-31 20:21:00,71.2,68.4,29.77,NNW,342,0.0,0.0,91,0.00,OVC,,0.06,WeatherDisplay:10.37,2013-09-01 00:21:00,
2013-08-31 20:26:00,71.1,68.3,29.77,NNW,343,0.0,0.0,91,0.00,OVC,,0.06,WeatherDisplay:10.37,2013-09-01 00:26:00,
2013-08-31 20:31:00,71.1,68.3,29.77,NNW,343,0.0,0.0,91,0.00,OVC,,0.06,WeatherDisplay:10.37,2013-09-01 00:31:00,
2013-08-31 20:36:00,71.0,68.2,29.78,NNW,342,0.0,0.0,91,0.00,OVC,,0.06,WeatherDisplay:10.37,2013-09-01 00:36:00,
2013-08-31 20:41:00,71.0,68.6,29.78,NNW,343,0.0,0.0,92,0.00,,,0.06,WeatherDisplay:10.37,2013-09-01 00:41:00,
2013-08-31 20:46:00,71.0,68.6,29.78,NNW,343,0.0,0.0,92,0.00,,,0.06,WeatherDisplay:10.37,2013-09-01 00:46:00,
2013-08-31 20:51:00,70.9,68.5,29.78,NNW,343,0.0,0.0,92,0.00,,,0.06,WeatherDisplay:10.37,2013-09-01 00:51:00,
2013-08-31 20:56:00,70.9,68.5,29.78,NNW,342,0.0,0.0,92,0.00,,,0.06,WeatherDisplay:10.37,2013-09-01 00:56:00,
2013-08-31 21:01:00,70.9,68.5,29.78,NNW,343,0.0,0.0,92,0.00,,,0.06,WeatherDisplay:10.37,2013-09-01 01:01:00,
2013-08-31 21:06:00,70.8,68.4,29.79,NNW,343,0.0,0.0,92,0.00,,,0.06,WeatherDisplay:10.37,2013-09-01 01:06:00,
2013-08-31 21:11:00,70.8,68.4,29.79,NNW,342,0.0,0.0,92,0.00,,,0.06,WeatherDisplay:10.37,2013-09-01 01:11:00,
2013-08-31 21:16:00,70.8,68.7,29.79,NNW,342,0.0,0.0,93,0.00,,,0.06,WeatherDisplay:10.37,2013-09-01 01:16:00,
2013-08-31 21:21:00,70.7,68.6,29.78,NNW,343,0.0,0.0,93,0.00,,,0.06,WeatherDisplay:10.37,2013-09-01 01:21:00,
2013-08-31 21:26:00,70.6,68.5,29.79,NNW,343,0.0,0.0,93,0.00,,,0.06,WeatherDisplay:10.37,2013-09-01 01:26:00,
2013-08-31 21:31:00,70.6,68.5,29.79,NNW,343,0.0,0.0,93,0.00,,,0.06,WeatherDisplay:10.37,2013-09-01 01:31:00,
2013-08-31 21:36:00,70.6,68.5,29.80,NNW,343,0.0,0.0,93,0.00,,,0.06,WeatherDisplay:10.37,2013-09-01 01:36:00,
2013-08-31 21:41:00,70.5,68.4,29.80,NNW,343,0.0,0.0,93,0.00,OVC,,0.06,WeatherDisplay:10.37,2013-09-01 01:41:00,
2013-08-31 21:46:00,70.5,68.4,29.80,NNW,343,0.0,0.0,93,0.00,OVC,,0.06,WeatherDisplay:10.37,2013-09-01 01:46:00,
2013-08-31 21:51:00,70.4,68.3,29.80,NNW,343,0.0,0.0,93,0.00,OVC,,0.06,WeatherDisplay:10.37,2013-09-01 01:51:00,
2013-08-31 21:56:00,70.4,68.6,29.80,NNW,343,0.0,0.0,94,0.00,OVC,,0.06,WeatherDisplay:10.37,2013-09-01 01:56:00,
2013-08-31 22:01:00,70.3,68.5,29.81,NNW,343,0.0,0.0,94,0.00,OVC,,0.06,WeatherDisplay:10.37,2013-09-01 02:01:00,
2013-08-31 22:06:00,70.2,68.4,29.81,NNW,343,0.0,0.0,94,0.00,OVC,,0.06,WeatherDisplay:10.37,2013-09-01 02:06:00,
2013-08-31 22:11:00,70.1,68.3,29.81,NNW,342,0.0,0.0,94,0.00,OVC,,0.06,WeatherDisplay:10.37,2013-09-01 02:11:00,
2013-08-31 22:16:00,70.0,68.2,29.82,NNW,343,0.0,0.0,94,0.00,OVC,,0.06,WeatherDisplay:10.37,2013-09-01 02:16:00,
2013-08-31 22:21:00,69.9,68.1,29.82,NNW,343,0.0,0.0,94,0.00,OVC,,0.06,WeatherDisplay:10.37,2013-09-01 02:21:00,
2013-08-31 22:26:00,69.8,68.3,29.81,NNW,343,0.0,0.0,95,0.00,OVC,,0.06,WeatherDisplay:10.37,2013-09-01 02:26:00,
2013-08-31 22:31:00,69.8,68.3,29.81,NNW,343,0.0,0.0,95,0.00,OVC,,0.06,WeatherDisplay:10.37,2013-09-01 02:31:00,
2013-08-31 22:36:00,69.8,68.3,29.81,NNW,343,0.0,0.0,95,0.00,OVC,,0.06,WeatherDisplay:10.37,2013-09-01 02:36:00,
2013-08-31 22:41:00,69.7,68.2,29.81,NNW,343,0.0,0.0,95,0.00,,,0.06,WeatherDisplay:10.37,2013-09-01 02:41:00,
2013-08-31 22:46:00,69.7,68.2,29.81,NNW,342,0.0,0.0,95,0.00,,,0.06,WeatherDisplay:10.37,2013-09-01 02:46:00,
2013-08-31 22:51:00,69.6,68.1,29.81,NNW,342,0.0,0.0,95,0.00,,,0.06,WeatherDisplay:10.37,2013-09-01 02:51:00,
2013-08-31 22:56:00,69.6,68.1,29.81,NNW,343,0.0,0.0,95,0.00,,,0.06,WeatherDisplay:10.37,2013-09-01 02:56:00,
2013-08-31 23:01:00,69.6,68.1,29.81,NNW,343,0.0,0.0,95,0.00,,,0.06,WeatherDisplay:10.37,2013-09-01 03:01:00,
2013-08-31 23:06:00,69.5,68.0,29.80,NNW,343,0.0,0.0,95,0.00,,,0.06,WeatherDisplay:10.37,2013-09-01 03:06:00,
2013-08-31 23:11:00,69.5,68.0,29.80,NNW,342,0.0,0.0,95,0.00,,,0.06,WeatherDisplay:10.37,2013-09-01 03:11:00,
2013-08-31 23:16:00,69.5,68.0,29.81,NNW,343,0.0,0.0,95,0.00,,,0.06,WeatherDisplay:10.37,2013-09-01 03:16:00,
2013-08-31 23:21:00,69.4,68.2,29.80,NNW,343,0.0,0.0,96,0.00,,,0.06,WeatherDisplay:10.37,2013-09-01 03:21:00,
2013-08-31 23:26:00,69.4,68.2,29.80,NNW,342,0.0,0.0,96,0.00,,,0.06,WeatherDisplay:10.37,2013-09-01 03:26:00,
2013-08-31 23:31:00,69.4,68.2,29.80,NNW,343,0.0,0.0,96,0.00,,,0.06,WeatherDisplay:10.37,2013-09-01 03:31:00,
2013-08-31 23:36:00,69.4,68.2,29.80,NNW,343,0.0,0.0,96,0.00,,,0.06,WeatherDisplay:10.37,2013-09-01 03:36:00,
2013-08-31 23:41:00,69.4,68.2,29.79,NNW,343,0.0,0.0,96,0.00,,,0.06,WeatherDisplay:10.37,2013-09-01 03:41:00,
2013-08-31 23:46:00,69.4,68.2,29.79,NNW,343,0.0,0.0,96,0.00,,,0.06,WeatherDisplay:10.37,2013-09-01 03:46:00,
2013-08-31 23:51:00,69.3,68.1,29.79,NNW,342,0.0,0.0,96,0.00,,,0.06,WeatherDisplay:10.37,2013-09-01 03:51:00,
2013-08-31 23:56:00,69.3,68.1,29.79,NNW,343,0.0,0.0,96,0.00,,,0.06,WeatherDisplay:10.37,2013-09-01 03:56:00,